Simultaneous Nadir Overpasses (SNOs) Predictions

Prediction of SNOs near US between NOAA-19 and NPP Satellite Orbit:

Table of predicted SNOs near US for the next 10.0 days since TLE Epoch: 3/23/2013
<
Index Date (NOAA-19) Time (NOAA-19) NOAA-19 Lat,Lon Date (NPP) Time (NPP) NPP Lat,Lon Distance(km) Time Diff (sec)
1 03/31/2013 18:09:48 50.00, -78.97 03/31/2013 18:09:39 49.53, -81.83 211.79 9
2 03/31/2013 19:51:52 49.96,-104.47 03/31/2013 19:51:08 49.48,-107.18 201.95 44
3 03/31/2013 21:30:05 36.65,-124.99 03/31/2013 21:28:48 36.16,-127.70 248.15 77
4 04/01/2013 06:33:25 26.67, -69.69 04/01/2013 06:29:00 27.12, -71.83 218.58 265
5 04/01/2013 08:13:43 32.85, -93.48 04/01/2013 08:08:45 33.25, -95.50 194.34 298
6 04/01/2013 09:56:23 30.80,-119.59 04/01/2013 09:50:50 31.21,-121.46 184.65 333
7 04/01/2013 17:58:52
